,,PressureMeas_1m,,PRMeasQMR101_1,,RHStat155_1m_1,,SRMeasQMS101R_1m,,TAStat155_1m_1,,GenWind_1,,GenWind_1,
2017-07-24, 07:00:07,VALID,917.865,VALID,0.0,VALID,92.162,VALID,90.625,VALID,18.082,VALID,126.0,VALID,2.018,
2017-07-24, 07:01:07,VALID,917.891,VALID,0.0,VALID,91.725,VALID,93.555,VALID,18.153,VALID,125.0,VALID,2.174,
2017-07-24, 07:02:07,VALID,917.894,VALID,0.0,VALID,91.364,VALID,96.789,VALID,18.22,VALID,127.0,VALID,1.616,
2017-07-24, 07:03:07,VALID,917.909,VALID,0.0,VALID,91.199,VALID,100.451,VALID,18.273,VALID,130.0,VALID,1.525,
2017-07-24, 07:04:07,VALID,917.921,VALID,0.0,VALID,90.611,VALID,103.832,VALID,18.318,VALID,130.0,VALID,1.787,
2017-07-24, 07:05:07,VALID,917.922,VALID,0.0,VALID,90.144,VALID,107.337,VALID,18.395,VALID,128.0,VALID,1.235,
2017-07-24, 07:06:07,VALID,917.922,VALID,0.0,VALID,90.303,VALID,110.351,VALID,18.456,VALID,131.0,VALID,1.509,
2017-07-24, 07:07:07,VALID,917.939,VALID,0.0,VALID,89.375,VALID,113.23,VALID,18.53,VALID,130.0,VALID,1.833,
2017-07-24, 07:08:07,VALID,917.94,VALID,0.0,VALID,89.084,VALID,116.135,VALID,18.614,VALID,125.0,VALID,1.675,
2017-07-24, 07:09:07,VALID,917.936,VALID,0.0,VALID,88.924,VALID,119.565,VALID,18.663,VALID,121.0,VALID,1.543,
2017-07-24, 07:10:07,VALID,917.949,VALID,0.0,VALID,89.443,VALID,123.724,VALID,18.655,VALID,112.0,VALID,1.604,
2017-07-24, 07:11:07,VALID,917.955,VALID,0.0,VALID,90.308,VALID,127.663,VALID,18.642,VALID,105.0,VALID,1.223,
2017-07-24, 07:12:07,VALID,917.963,VALID,0.0,VALID,90.836,VALID,131.341,VALID,18.653,VALID,115.0,VALID,1.307,
2017-07-24, 07:13:07,VALID,917.989,VALID,0.0,VALID,90.608,VALID,134.724,VALID,18.679,VALID,116.0,VALID,1.708,
2017-07-24, 07:14:07,VALID,917.998,VALID,0.0,VALID,90.671,VALID,137.872,VALID,18.711,VALID,105.0,VALID,1.347,
2017-07-24, 07:15:07,VALID,918.015,VALID,0.0,VALID,91.235,VALID,141.037,VALID,18.751,VALID,100.0,VALID,1.158,
2017-07-24, 07:16:07,VALID,918.017,VALID,0.0,VALID,91.104,VALID,144.663,VALID,18.773,VALID,102.0,VALID,1.277,
2017-07-24, 07:17:07,VALID,918.034,VALID,0.0,VALID,91.127,VALID,148.01,VALID,18.815,VALID,107.0,VALID,0.955,
2017-07-24, 07:18:07,VALID,918.028,VALID,0.0,VALID,91.298,VALID,150.907,VALID,18.904,VALID,106.0,VALID,0.946,
2017-07-24, 07:19:07,VALID,918.027,VALID,0.0,VALID,90.738,VALID,154.386,VALID,18.947,VALID,116.0,VALID,1.51,
2017-07-24, 07:20:07,VALID,918.014,VALID,0.0,VALID,90.477,VALID,158.07,VALID,18.924,VALID,112.0,VALID,1.127,
2017-07-24, 07:21:07,VALID,918.013,VALID,0.0,VALID,90.894,VALID,161.417,VALID,18.959,VALID,110.0,VALID,1.074,
2017-07-24, 07:22:07,VALID,918.0,VALID,0.0,VALID,90.998,VALID,164.576,VALID,19.011,VALID,114.0,VALID,0.835,
2017-07-24, 07:23:07,VALID,918.003,VALID,0.0,VALID,91.324,VALID,167.832,VALID,19.113,VALID,106.0,VALID,0.953,
2017-07-24, 07:24:07,VALID,918.01,VALID,0.0,VALID,90.589,VALID,171.061,VALID,19.163,VALID,121.0,VALID,0.979,
2017-07-24, 07:25:07,VALID,918.009,VALID,0.0,VALID,89.9,VALID,174.83,VALID,19.194,VALID,133.0,VALID,1.212,
2017-07-24, 07:26:07,VALID,918.012,VALID,0.0,VALID,89.183,VALID,179.338,VALID,19.211,VALID,132.0,VALID,1.367,
2017-07-24, 07:27:07,VALID,918.014,VALID,0.0,VALID,89.01,VALID,183.648,VALID,19.216,VALID,127.0,VALID,1.513,
2017-07-24, 07:28:07,VALID,918.018,VALID,0.0,VALID,89.585,VALID,187.104,VALID,19.243,VALID,128.0,VALID,1.505,
2017-07-24, 07:29:07,VALID,918.024,VALID,0.0,VALID,89.781,VALID,190.072,VALID,19.31,VALID,133.0,VALID,1.202,
2017-07-24, 07:30:07,VALID,918.029,VALID,0.0,VALID,88.562,VALID,193.62,VALID,19.291,VALID,139.0,VALID,1.564,
2017-07-24, 07:31:07,VALID,918.045,VALID,0.0,VALID,89.399,VALID,197.24,VALID,19.286,VALID,129.0,VALID,1.502,
2017-07-24, 07:32:07,VALID,918.056,VALID,0.0,VALID,88.983,VALID,201.212,VALID,19.359,VALID,131.0,VALID,1.145,
2017-07-24, 07:33:07,VALID,918.071,VALID,0.0,VALID,89.348,VALID,205.045,VALID,19.459,VALID,125.0,VALID,0.864,
2017-07-24, 07:34:07,VALID,918.103,VALID,0.0,VALID,89.038,VALID,208.523,VALID,19.594,VALID,131.0,VALID,1.006,
2017-07-24, 07:35:07,VALID,918.13,VALID,0.0,VALID,88.624,VALID,212.53,VALID,19.66,VALID,144.0,VALID,1.379,
2017-07-24, 07:36:07,VALID,918.135,VALID,0.0,VALID,88.066,VALID,216.557,VALID,19.647,VALID,143.0,VALID,1.32,
2017-07-24, 07:37:07,VALID,918.142,VALID,0.0,VALID,87.694,VALID,220.351,VALID,19.638,VALID,131.0,VALID,1.173,
2017-07-24, 07:38:07,VALID,918.143,VALID,0.0,VALID,88.287,VALID,223.815,VALID,19.682,VALID,120.0,VALID,1.419,
2017-07-24, 07:39:07,VALID,918.117,VALID,0.0,VALID,87.921,VALID,226.951,VALID,19.724,VALID,111.0,VALID,1.462,
2017-07-24, 07:40:07,VALID,918.104,VALID,0.0,VALID,88.998,VALID,230.271,VALID,19.835,VALID,92.0,VALID,1.221,
2017-07-24, 07:41:07,VALID,918.114,VALID,0.0,VALID,89.303,VALID,234.489,VALID,19.914,VALID,97.0,VALID,1.452,
2017-07-24, 07:42:07,VALID,918.137,VALID,0.0,VALID,87.689,VALID,238.639,VALID,19.918,VALID,107.0,VALID,1.339,
2017-07-24, 07:43:07,VALID,918.173,VALID,0.0,VALID,87.402,VALID,243.037,VALID,19.945,VALID,107.0,VALID,1.838,
2017-07-24, 07:44:07,VALID,918.191,VALID,0.0,VALID,86.851,VALID,247.088,VALID,19.917,VALID,99.0,VALID,2.062,
2017-07-24, 07:45:07,VALID,918.228,VALID,0.0,VALID,88.176,VALID,251.332,VALID,19.941,VALID,113.0,VALID,1.406,
2017-07-24, 07:46:07,VALID,918.252,VALID,0.0,VALID,88.71,VALID,255.3,VALID,20.053,VALID,125.0,VALID,1.39,
2017-07-24, 07:47:07,VALID,918.282,VALID,0.0,VALID,87.844,VALID,258.834,VALID,20.123,VALID,128.0,VALID,1.225,
2017-07-24, 07:48:07,VALID,918.308,VALID,0.0,VALID,87.862,VALID,262.245,VALID,20.196,VALID,128.0,VALID,1.33,
2017-07-24, 07:49:07,VALID,918.311,VALID,0.0,VALID,86.021,VALID,266.494,VALID,20.226,VALID,139.0,VALID,1.632,
2017-07-24, 07:50:07,VALID,918.315,VALID,0.0,VALID,85.362,VALID,270.742,VALID,20.079,VALID,127.0,VALID,1.719,
2017-07-24, 07:51:07,VALID,918.328,VALID,0.0,VALID,86.442,VALID,274.653,VALID,20.043,VALID,115.0,VALID,1.971,
2017-07-24, 07:52:07,VALID,918.344,VALID,0.0,VALID,86.825,VALID,278.545,VALID,20.084,VALID,132.0,VALID,1.314,
2017-07-24, 07:53:07,VALID,918.371,VALID,0.0,VALID,86.443,VALID,282.595,VALID,20.181,VALID,128.0,VALID,1.606,
2017-07-24, 07:54:07,VALID,918.402,VALID,0.0,VALID,86.896,VALID,286.806,VALID,20.287,VALID,103.0,VALID,1.572,
2017-07-24, 07:55:07,VALID,918.451,VALID,0.0,VALID,85.632,VALID,290.772,VALID,20.38,VALID,123.0,VALID,1.826,
2017-07-24, 07:56:07,VALID,918.481,VALID,0.0,VALID,84.399,VALID,294.167,VALID,20.463,VALID,134.0,VALID,1.893,
2017-07-24, 07:57:07,VALID,918.524,VALID,0.0,VALID,84.327,VALID,297.88,VALID,20.523,VALID,114.0,VALID,1.565,
2017-07-24, 07:58:07,VALID,918.533,VALID,0.0,VALID,84.864,VALID,301.663,VALID,20.595,VALID,123.0,VALID,1.078,
2017-07-24, 07:59:07,VALID,918.537,VALID,0.0,VALID,84.753,VALID,304.615,VALID,20.646,VALID,85.0,VALID,1.246,
2017-07-24, 08:00:07,VALID,918.527,VALID,0.0,VALID,84.091,VALID,308.387,VALID,20.65,VALID,100.0,VALID,1.439,
2017-07-24, 08:01:07,VALID,918.525,VALID,0.0,VALID,83.712,VALID,312.567,VALID,20.61,VALID,98.0,VALID,1.335,
2017-07-24, 08:02:07,VALID,918.506,VALID,0.0,VALID,84.704,VALID,316.361,VALID,20.64,VALID,103.0,VALID,1.377,
2017-07-24, 08:03:07,VALID,918.518,VALID,0.0,VALID,84.65,VALID,320.089,VALID,20.69,VALID,121.0,VALID,1.23,
2017-07-24, 08:04:07,VALID,918.521,VALID,0.0,VALID,85.693,VALID,324.265,VALID,20.881,VALID,112.0,VALID,1.28,
2017-07-24, 08:05:07,VALID,918.526,VALID,0.0,VALID,84.273,VALID,328.066,VALID,21.085,VALID,141.0,VALID,1.628,
2017-07-24, 08:06:07,VALID,918.536,VALID,0.0,VALID,81.637,VALID,331.06,VALID,21.091,VALID,152.0,VALID,2.21,
2017-07-24, 08:07:07,VALID,918.534,VALID,0.0,VALID,81.692,VALID,334.299,VALID,20.946,VALID,150.0,VALID,2.303,
2017-07-24, 08:08:07,VALID,918.539,VALID,0.0,VALID,82.14,VALID,337.777,VALID,20.894,VALID,149.0,VALID,2.351,
2017-07-24, 08:09:07,VALID,918.509,VALID,0.0,VALID,81.967,VALID,341.546,VALID,20.856,VALID,148.0,VALID,2.102,
2017-07-24, 08:10:07,VALID,918.482,VALID,0.0,VALID,82.543,VALID,345.066,VALID,20.862,VALID,149.0,VALID,2.261,
2017-07-24, 08:11:07,VALID,918.455,VALID,0.0,VALID,81.917,VALID,348.611,VALID,20.923,VALID,142.0,VALID,2.114,
2017-07-24, 08:12:07,VALID,918.453,VALID,0.0,VALID,82.269,VALID,351.642,VALID,21.007,VALID,141.0,VALID,1.752,
2017-07-24, 08:13:07,VALID,918.473,VALID,0.0,VALID,81.993,VALID,355.419,VALID,21.078,VALID,146.0,VALID,2.072,
2017-07-24, 08:14:07,VALID,918.496,VALID,0.0,VALID,81.03,VALID,359.47,VALID,21.091,VALID,148.0,VALID,2.217,
2017-07-24, 08:15:07,VALID,918.51,VALID,0.0,VALID,80.992,VALID,363.354,VALID,21.164,VALID,145.0,VALID,2.202,
2017-07-24, 08:16:07,VALID,918.524,VALID,0.0,VALID,80.374,VALID,366.642,VALID,21.239,VALID,151.0,VALID,2.084,
2017-07-24, 08:17:07,VALID,918.548,VALID,0.0,VALID,80.017,VALID,369.958,VALID,21.295,VALID,145.0,VALID,2.302,
2017-07-24, 08:18:07,VALID,918.559,VALID,0.0,VALID,79.613,VALID,373.564,VALID,21.286,VALID,150.0,VALID,2.42,
2017-07-24, 08:19:07,VALID,918.562,VALID,0.0,VALID,80.32,VALID,377.308,VALID,21.289,VALID,151.0,VALID,2.058,
2017-07-24, 08:20:06,VALID,918.572,VALID,0.0,VALID,80.74,VALID,381.074,VALID,21.356,VALID,144.0,VALID,1.932,
2017-07-24, 08:21:06,VALID,918.583,VALID,0.0,VALID,79.84,VALID,384.557,VALID,21.424,VALID,139.0,VALID,1.784,
2017-07-24, 08:22:06,VALID,918.577,VALID,0.0,VALID,79.811,VALID,388.538,VALID,21.507,VALID,143.0,VALID,1.74,
2017-07-24, 08:23:06,VALID,918.6,VALID,0.0,VALID,79.767,VALID,392.122,VALID,21.575,VALID,152.0,VALID,1.618,
2017-07-24, 08:24:06,VALID,918.61,VALID,0.0,VALID,79.426,VALID,395.696,VALID,21.642,VALID,148.0,VALID,1.513,
2017-07-24, 08:25:06,VALID,918.633,VALID,0.0,VALID,79.05,VALID,399.121,VALID,21.727,VALID,149.0,VALID,1.53,
2017-07-24, 08:26:06,VALID,918.647,VALID,0.0,VALID,79.376,VALID,402.705,VALID,21.822,VALID,151.0,VALID,1.368,
2017-07-24, 08:27:06,VALID,918.663,VALID,0.0,VALID,78.507,VALID,406.429,VALID,21.91,VALID,154.0,VALID,0.814,
2017-07-24, 08:28:06,VALID,918.66,VALID,0.0,VALID,78.14,VALID,410.071,VALID,22.024,VALID,150.0,VALID,1.585,
2017-07-24, 08:29:06,VALID,918.659,VALID,0.0,VALID,77.424,VALID,412.991,VALID,21.999,VALID,150.0,VALID,1.459,
2017-07-24, 08:30:06,VALID,918.645,VALID,0.0,VALID,77.504,VALID,416.521,VALID,22.019,VALID,151.0,VALID,1.207,
2017-07-24, 08:31:06,VALID,918.636,VALID,0.0,VALID,76.713,VALID,420.018,VALID,22.101,VALID,142.0,VALID,1.441,
2017-07-24, 08:32:06,VALID,918.615,VALID,0.0,VALID,76.184,VALID,422.893,VALID,22.194,VALID,137.0,VALID,1.141,
2017-07-24, 08:33:06,VALID,918.596,VALID,0.0,VALID,76.312,VALID,426.921,VALID,22.306,VALID,140.0,VALID,1.295,
2017-07-24, 08:34:06,VALID,918.58,VALID,0.0,VALID,76.01,VALID,430.672,VALID,22.362,VALID,149.0,VALID,1.251,
2017-07-24, 08:35:06,VALID,918.577,VALID,0.0,VALID,76.177,VALID,434.284,VALID,22.422,VALID,151.0,VALID,1.215,
2017-07-24, 08:36:06,VALID,918.566,VALID,0.0,VALID,75.922,VALID,438.783,VALID,22.521,VALID,156.0,VALID,1.294,
2017-07-24, 08:37:06,VALID,918.566,VALID,0.0,VALID,75.851,VALID,443.04,VALID,22.594,VALID,135.0,VALID,0.903,
2017-07-24, 08:38:06,VALID,918.561,VALID,0.0,VALID,75.206,VALID,447.257,VALID,22.699,VALID,143.0,VALID,1.335,
2017-07-24, 08:39:06,VALID,918.558,VALID,0.0,VALID,73.92,VALID,450.164,VALID,22.642,VALID,149.0,VALID,1.354,
2017-07-24, 08:40:06,VALID,918.555,VALID,0.0,VALID,74.556,VALID,453.235,VALID,22.562,VALID,150.0,VALID,1.301,
2017-07-24, 08:41:06,VALID,918.577,VALID,0.0,VALID,74.62,VALID,456.902,VALID,22.526,VALID,160.0,VALID,1.031,
2017-07-24, 08:42:06,VALID,918.579,VALID,0.0,VALID,75.397,VALID,460.935,VALID,22.668,VALID,141.0,VALID,0.843,
2017-07-24, 08:43:06,VALID,918.596,VALID,0.0,VALID,75.464,VALID,464.439,VALID,22.893,VALID,142.0,VALID,0.578,
2017-07-24, 08:44:06,VALID,918.594,VALID,0.0,VALID,74.903,VALID,468.025,VALID,23.12,VALID,96.0,VALID,0.954,
2017-07-24, 08:45:06,VALID,918.597,VALID,0.0,VALID,73.685,VALID,470.669,VALID,23.375,VALID,113.0,VALID,0.576,
2017-07-24, 08:46:06,VALID,918.574,VALID,0.0,VALID,71.723,VALID,473.705,VALID,23.468,VALID,79.0,VALID,1.067,
2017-07-24, 08:47:06,VALID,918.57,VALID,0.0,VALID,71.923,VALID,477.25,VALID,23.421,VALID,83.0,VALID,1.099,
2017-07-24, 08:48:06,VALID,918.572,VALID,0.0,VALID,72.429,VALID,481.837,VALID,23.431,VALID,93.0,VALID,1.153,
2017-07-24, 08:49:06,VALID,918.568,VALID,0.0,VALID,73.634,VALID,485.549,VALID,23.614,VALID,135.0,VALID,0.763,
2017-07-24, 08:50:06,VALID,918.568,VALID,0.0,VALID,72.268,VALID,488.422,VALID,23.769,VALID,155.0,VALID,0.598,
2017-07-24, 08:51:06,VALID,918.574,VALID,0.0,VALID,71.924,VALID,491.282,VALID,23.916,VALID,155.0,VALID,0.653,
2017-07-24, 08:52:06,VALID,918.558,VALID,0.0,VALID,70.686,VALID,494.174,VALID,23.88,VALID,133.0,VALID,0.654,
2017-07-24, 08:53:06,VALID,918.559,VALID,0.0,VALID,71.324,VALID,498.106,VALID,23.768,VALID,143.0,VALID,0.751,
2017-07-24, 08:54:06,VALID,918.55,VALID,0.0,VALID,71.781,VALID,502.393,VALID,23.751,VALID,150.0,VALID,0.625,
2017-07-24, 08:55:06,VALID,918.541,VALID,0.0,VALID,71.197,VALID,506.295,VALID,23.724,VALID,156.0,VALID,0.608,
2017-07-24, 08:56:06,VALID,918.553,VALID,0.0,VALID,71.357,VALID,510.924,VALID,23.752,VALID,121.0,VALID,0.638,
2017-07-24, 08:57:06,VALID,918.568,VALID,0.0,VALID,70.815,VALID,513.135,VALID,23.931,VALID,105.0,VALID,0.224,
2017-07-24, 08:58:06,VALID,918.57,VALID,0.0,VALID,69.55,VALID,516.071,VALID,24.084,VALID,95.0,VALID,0.832,
2017-07-24, 08:59:06,VALID,918.588,VALID,0.0,VALID,67.784,VALID,519.135,VALID,24.045,VALID,111.0,VALID,0.586,
2017-07-24, 09:00:06,VALID,918.587,VALID,0.0,VALID,68.033,VALID,522.448,VALID,24.068,VALID,132.0,VALID,0.138,
2017-07-24, 09:01:06,VALID,918.612,VALID,0.0,VALID,68.09,VALID,526.056,VALID,24.186,VALID,132.0,VALID,0.688,
2017-07-24, 09:02:06,VALID,918.608,VALID,0.0,VALID,68.212,VALID,529.093,VALID,24.184,VALID,169.0,VALID,0.262,
2017-07-24, 09:03:06,VALID,918.62,VALID,0.0,VALID,68.033,VALID,532.414,VALID,24.389,VALID,7.0,VALID,0.292,
2017-07-24, 09:04:06,VALID,918.612,VALID,0.0,VALID,67.824,VALID,535.693,VALID,24.552,VALID,354.0,VALID,0.091,
2017-07-24, 09:05:06,VALID,918.589,VALID,0.0,VALID,67.781,VALID,538.383,VALID,24.762,VALID,7.0,VALID,0.195,
2017-07-24, 09:06:06,VALID,918.569,VALID,0.0,VALID,67.649,VALID,541.594,VALID,25.066,VALID,356.0,VALID,0.162,
2017-07-24, 09:07:06,VALID,918.551,VALID,0.0,VALID,66.635,VALID,544.602,VALID,25.307,VALID,338.0,VALID,0.198,
2017-07-24, 09:08:06,VALID,918.547,VALID,0.0,VALID,66.611,VALID,548.299,VALID,25.45,VALID,308.0,VALID,0.022,
2017-07-24, 09:09:06,VALID,918.551,VALID,0.0,VALID,66.198,VALID,551.779,VALID,25.523,VALID,245.0,VALID,0.308,
2017-07-24, 09:10:06,VALID,918.569,VALID,0.0,VALID,66.052,VALID,554.676,VALID,25.32,VALID,251.0,VALID,0.596,
2017-07-24, 09:11:06,VALID,918.578,VALID,0.0,VALID,66.727,VALID,557.687,VALID,24.967,VALID,246.0,VALID,0.686,
2017-07-24, 09:12:06,VALID,918.603,VALID,0.0,VALID,67.358,VALID,560.488,VALID,24.664,VALID,231.0,VALID,0.496,
2017-07-24, 09:13:06,VALID,918.606,VALID,0.0,VALID,67.533,VALID,565.379,VALID,24.579,VALID,234.0,VALID,0.554,
2017-07-24, 09:14:06,VALID,918.606,VALID,0.0,VALID,66.699,VALID,568.293,VALID,24.546,VALID,254.0,VALID,0.161,
2017-07-24, 09:15:06,VALID,918.591,VALID,0.0,VALID,68.95,VALID,571.865,VALID,24.673,VALID,304.0,VALID,0.467,
2017-07-24, 09:16:06,VALID,918.581,VALID,0.0,VALID,66.461,VALID,574.798,VALID,24.642,VALID,313.0,VALID,0.514,
2017-07-24, 09:17:06,VALID,918.563,VALID,0.0,VALID,67.645,VALID,578.16,VALID,24.519,VALID,311.0,VALID,0.332,
2017-07-24, 09:18:06,VALID,918.569,VALID,0.0,VALID,67.348,VALID,581.854,VALID,24.622,VALID,241.0,VALID,0.321,
2017-07-24, 09:19:06,VALID,918.561,VALID,0.0,VALID,67.082,VALID,586.029,VALID,24.663,VALID,258.0,VALID,0.495,
2017-07-24, 09:20:06,VALID,918.571,VALID,0.0,VALID,67.862,VALID,588.341,VALID,24.746,VALID,305.0,VALID,0.468,
2017-07-24, 09:21:06,VALID,918.592,VALID,0.0,VALID,67.159,VALID,589.857,VALID,24.875,VALID,295.0,VALID,0.127,
2017-07-24, 09:22:06,VALID,918.576,VALID,0.0,VALID,66.126,VALID,592.569,VALID,25.032,VALID,341.0,VALID,0.152,
2017-07-24, 09:23:06,VALID,918.565,VALID,0.0,VALID,65.749,VALID,596.373,VALID,25.339,VALID,314.0,VALID,0.376,
2017-07-24, 09:24:06,VALID,918.567,VALID,0.0,VALID,64.635,VALID,601.063,VALID,25.282,VALID,306.0,VALID,0.586,
2017-07-24, 09:25:06,VALID,918.584,VALID,0.0,VALID,66.128,VALID,604.931,VALID,25.047,VALID,277.0,VALID,0.329,
2017-07-24, 09:26:06,VALID,918.596,VALID,0.0,VALID,66.424,VALID,607.897,VALID,24.94,VALID,276.0,VALID,0.391,
2017-07-24, 09:27:06,VALID,918.605,VALID,0.0,VALID,66.625,VALID,610.213,VALID,24.95,VALID,320.0,VALID,0.571,
2017-07-24, 09:28:06,VALID,918.6,VALID,0.0,VALID,66.639,VALID,612.561,VALID,25.026,VALID,280.0,VALID,0.371,
2017-07-24, 09:29:06,VALID,918.579,VALID,0.0,VALID,66.245,VALID,615.431,VALID,25.049,VALID,308.0,VALID,0.115,
2017-07-24, 09:30:06,VALID,918.566,VALID,0.0,VALID,65.577,VALID,618.712,VALID,25.092,VALID,303.0,VALID,0.702,
2017-07-24, 09:31:06,VALID,918.559,VALID,0.0,VALID,65.161,VALID,622.256,VALID,24.918,VALID,316.0,VALID,0.478,
2017-07-24, 09:32:06,VALID,918.547,VALID,0.0,VALID,66.299,VALID,625.796,VALID,24.844,VALID,294.0,VALID,0.714,
2017-07-24, 09:33:06,VALID,918.535,VALID,0.0,VALID,66.321,VALID,629.411,VALID,24.758,VALID,281.0,VALID,0.475,
2017-07-24, 09:34:06,VALID,918.539,VALID,0.0,VALID,66.625,VALID,631.924,VALID,24.764,VALID,255.0,VALID,0.307,
2017-07-24, 09:35:06,VALID,918.536,VALID,0.0,VALID,66.572,VALID,633.628,VALID,24.747,VALID,295.0,VALID,0.968,
2017-07-24, 09:36:06,VALID,918.538,VALID,0.0,VALID,67.131,VALID,636.702,VALID,24.561,VALID,299.0,VALID,0.765,
2017-07-24, 09:37:06,VALID,918.55,VALID,0.0,VALID,67.848,VALID,639.337,VALID,24.452,VALID,298.0,VALID,0.45,
2017-07-24, 09:38:06,VALID,918.555,VALID,0.0,VALID,68.242,VALID,642.218,VALID,24.541,VALID,264.0,VALID,0.481,
2017-07-24, 09:39:06,VALID,918.565,VALID,0.0,VALID,68.104,VALID,645.831,VALID,24.701,VALID,287.0,VALID,0.479,
2017-07-24, 09:40:06,VALID,918.553,VALID,0.0,VALID,67.802,VALID,648.412,VALID,24.808,VALID,277.0,VALID,0.78,
2017-07-24, 09:41:06,VALID,918.55,VALID,0.0,VALID,67.023,VALID,651.42,VALID,24.726,VALID,291.0,VALID,0.677,
2017-07-24, 09:42:06,VALID,918.555,VALID,0.0,VALID,68.16,VALID,654.724,VALID,24.664,VALID,302.0,VALID,0.505,
2017-07-24, 09:43:06,VALID,918.551,VALID,0.0,VALID,67.754,VALID,658.11,VALID,24.775,VALID,301.0,VALID,0.371,
2017-07-24, 09:44:06,VALID,918.561,VALID,0.0,VALID,67.524,VALID,659.806,VALID,24.867,VALID,310.0,VALID,0.818,
2017-07-24, 09:45:06,VALID,918.557,VALID,0.0,VALID,67.389,VALID,662.479,VALID,24.949,VALID,355.0,VALID,0.145,
2017-07-24, 09:46:06,VALID,918.542,VALID,0.0,VALID,67.009,VALID,666.697,VALID,25.202,VALID,1.0,VALID,0.725,
2017-07-24, 09:47:06,VALID,918.523,VALID,0.0,VALID,65.6,VALID,670.057,VALID,25.578,VALID,324.0,VALID,0.498,
2017-07-24, 09:48:06,VALID,918.515,VALID,0.0,VALID,63.648,VALID,673.446,VALID,25.589,VALID,297.0,VALID,1.13,
2017-07-24, 09:49:06,VALID,918.497,VALID,0.0,VALID,65.259,VALID,675.431,VALID,25.308,VALID,304.0,VALID,0.096,
2017-07-24, 09:50:06,VALID,918.489,VALID,0.0,VALID,66.534,VALID,677.303,VALID,25.317,VALID,326.0,VALID,0.449,
2017-07-24, 09:51:06,VALID,918.474,VALID,0.0,VALID,66.709,VALID,679.023,VALID,25.354,VALID,298.0,VALID,0.443,
2017-07-24, 09:52:06,VALID,918.458,VALID,0.0,VALID,67.337,VALID,681.383,VALID,25.432,VALID,261.0,VALID,0.145,
2017-07-24, 09:53:06,VALID,918.435,VALID,0.0,VALID,65.666,VALID,683.377,VALID,25.583,VALID,298.0,VALID,0.179,
2017-07-24, 09:54:06,VALID,918.414,VALID,0.0,VALID,66.039,VALID,687.455,VALID,25.783,VALID,265.0,VALID,0.333,
2017-07-24, 09:55:06,VALID,918.389,VALID,0.0,VALID,64.109,VALID,691.059,VALID,25.963,VALID,251.0,VALID,0.239,
2017-07-24, 09:56:06,VALID,918.378,VALID,0.0,VALID,65.314,VALID,693.804,VALID,26.007,VALID,305.0,VALID,0.279,
2017-07-24, 09:57:06,VALID,918.379,VALID,0.0,VALID,65.021,VALID,695.578,VALID,25.994,VALID,281.0,VALID,0.49,
2017-07-24, 09:58:06,VALID,918.373,VALID,0.0,VALID,66.028,VALID,698.917,VALID,25.971,VALID,253.0,VALID,0.85,
2017-07-24, 09:59:06,VALID,918.357,VALID,0.0,VALID,65.8,VALID,698.98,VALID,25.894,VALID,252.0,VALID,0.503,
2017-07-24, 10:00:06,VALID,918.333,VALID,0.0,VALID,65.723,VALID,699.031,VALID,25.965,VALID,344.0,VALID,0.397,
2017-07-24, 10:01:06,VALID,918.326,VALID,0.0,VALID,66.296,VALID,703.954,VALID,26.194,VALID,307.0,VALID,0.15,
2017-07-24, 10:02:06,VALID,918.304,VALID,0.0,VALID,64.643,VALID,706.36,VALID,26.452,VALID,237.0,VALID,0.309,
2017-07-24, 10:03:06,VALID,918.308,VALID,0.0,VALID,63.344,VALID,708.32,VALID,26.492,VALID,252.0,VALID,0.538,
2017-07-24, 10:04:06,VALID,918.312,VALID,0.0,VALID,63.294,VALID,710.684,VALID,26.265,VALID,253.0,VALID,1.359,
2017-07-24, 10:05:06,VALID,918.304,VALID,0.0,VALID,64.213,VALID,713.895,VALID,25.725,VALID,280.0,VALID,0.49,
2017-07-24, 10:06:06,VALID,918.303,VALID,0.0,VALID,66.604,VALID,714.866,VALID,25.592,VALID,262.0,VALID,0.657,
2017-07-24, 10:07:06,VALID,918.305,VALID,0.0,VALID,67.742,VALID,719.317,VALID,25.633,VALID,313.0,VALID,0.46,
2017-07-24, 10:08:06,VALID,918.293,VALID,0.0,VALID,66.537,VALID,724.398,VALID,25.837,VALID,312.0,VALID,0.781,
2017-07-24, 10:09:06,VALID,918.289,VALID,0.0,VALID,64.334,VALID,725.539,VALID,25.899,VALID,302.0,VALID,0.638,
2017-07-24, 10:10:06,VALID,918.281,VALID,0.0,VALID,65.236,VALID,726.62,VALID,25.863,VALID,294.0,VALID,0.768,
2017-07-24, 10:11:06,VALID,918.288,VALID,0.0,VALID,65.449,VALID,729.738,VALID,25.777,VALID,298.0,VALID,0.689,
2017-07-24, 10:12:06,VALID,918.299,VALID,0.0,VALID,65.75,VALID,732.537,VALID,25.701,VALID,275.0,VALID,0.915,
2017-07-24, 10:13:06,VALID,918.304,VALID,0.0,VALID,64.781,VALID,734.062,VALID,25.52,VALID,245.0,VALID,1.157,
2017-07-24, 10:14:06,VALID,918.303,VALID,0.0,VALID,67.285,VALID,733.312,VALID,25.341,VALID,289.0,VALID,0.885,
2017-07-24, 10:15:06,VALID,918.305,VALID,0.0,VALID,66.911,VALID,740.097,VALID,25.418,VALID,284.0,VALID,0.923,
2017-07-24, 10:16:06,VALID,918.284,VALID,0.0,VALID,66.107,VALID,742.466,VALID,25.395,VALID,240.0,VALID,1.057,
2017-07-24, 10:17:06,VALID,918.277,VALID,0.0,VALID,67.149,VALID,743.021,VALID,25.398,VALID,336.0,VALID,0.953,
2017-07-24, 10:18:06,VALID,918.27,VALID,0.0,VALID,66.846,VALID,749.373,VALID,25.633,VALID,278.0,VALID,0.424,
2017-07-24, 10:19:06,VALID,918.282,VALID,0.0,VALID,65.93,VALID,748.933,VALID,25.925,VALID,283.0,VALID,0.475,
2017-07-24, 10:20:06,VALID,918.298,VALID,0.0,VALID,66.456,VALID,754.148,VALID,26.119,VALID,279.0,VALID,1.06,
2017-07-24, 10:21:06,VALID,918.302,VALID,0.0,VALID,64.934,VALID,757.789,VALID,25.962,VALID,294.0,VALID,1.28,
2017-07-24, 10:22:06,VALID,918.296,VALID,0.0,VALID,66.124,VALID,757.971,VALID,25.582,VALID,318.0,VALID,0.74,
2017-07-24, 10:23:06,VALID,918.274,VALID,0.0,VALID,66.388,VALID,761.752,VALID,25.506,VALID,275.0,VALID,0.748,
2017-07-24, 10:24:06,VALID,918.268,VALID,0.0,VALID,67.576,VALID,763.264,VALID,25.527,VALID,328.0,VALID,0.543,
2017-07-24, 10:25:06,VALID,918.253,VALID,0.0,VALID,67.106,VALID,766.722,VALID,25.763,VALID,335.0,VALID,0.325,
2017-07-24, 10:26:06,VALID,918.239,VALID,0.0,VALID,65.078,VALID,767.921,VALID,25.975,VALID,296.0,VALID,0.194,
2017-07-24, 10:27:06,VALID,918.217,VALID,0.0,VALID,65.289,VALID,769.46,VALID,26.138,VALID,315.0,VALID,0.674,
2017-07-24, 10:28:06,VALID,918.196,VALID,0.0,VALID,66.337,VALID,772.247,VALID,26.197,VALID,32.0,VALID,0.714,
2017-07-24, 10:29:06,VALID,918.189,VALID,0.0,VALID,65.952,VALID,774.404,VALID,26.422,VALID,360.0,VALID,0.648,
2017-07-24, 10:30:06,VALID,918.166,VALID,0.0,VALID,64.288,VALID,778.366,VALID,26.588,VALID,23.0,VALID,1.043,
2017-07-24, 10:31:06,VALID,918.15,VALID,0.0,VALID,64.458,VALID,782.664,VALID,26.806,VALID,36.0,VALID,0.645,
2017-07-24, 10:32:06,VALID,918.161,VALID,0.0,VALID,63.563,VALID,782.546,VALID,26.874,VALID,294.0,VALID,0.778,
2017-07-24, 10:33:06,VALID,918.161,VALID,0.0,VALID,63.129,VALID,789.448,VALID,26.653,VALID,316.0,VALID,0.783,
2017-07-24, 10:34:06,VALID,918.159,VALID,0.0,VALID,65.908,VALID,789.123,VALID,26.492,VALID,5.0,VALID,1.037,
2017-07-24, 10:35:06,VALID,918.167,VALID,0.0,VALID,66.198,VALID,789.849,VALID,26.748,VALID,20.0,VALID,0.78,